{"data":{"norad_id":55771,"epoch":"2026-05-25T03:07:43.409856Z","epoch_age_seconds":74460,"freshness":"FRESH","line1":"1 55771U 23028AG  26145.13036354 -.00001268  00000+0 -98537-4 0  9997","line2":"2 55771  70.0004  31.7073 0002293 272.4089  87.6808 14.98332453177988","mean_motion":14.98332453,"eccentricity":0.0002293,"inclination_deg":70.0004,"raan_deg":31.7073,"arg_perigee_deg":272.4089,"mean_anomaly_deg":87.6808,"bstar":-9.8537e-5,"rev_number":17798,"period_min":96.106841783797,"perigee_km":570.45462776412,"apogee_km":573.64198274511,"semimajor_km":6950.1853052546,"source":"CELESTRAK","updated_at":"2026-05-25T13:38:17.883796Z"}}